x

Yucatan Basin - 120 Nm Ese Of Cozumel, Mx (42056) Weather Station

2:40 - Tue 17th Jan 2017 All times are CST. -6 hours from GMT.

  • Wind
    16mph, 20mph gusts
  • Sea Temp 81°f
  • Air Temp 80°f
  • Sea Pressure 1016.5mb
  •  Yucatan Basin - 120 Nm Ese Of Cozumel, Mx
  •  Yucatan Basin - 120 Nm Ese Of Cozumel, Mx

More Historic Weather Station data

Upgrade to MSW Pro to gain access to the past 30 days of data for over 8000 Wavebouys and Weather Stations around the globe.

Join Pro

Comparision Forecast

View Surf forecast
   
mar. 01/17 2:40  -   -   -  16 20 mph 1016.5mb 81f 80f
2:30  -   -   -  16 20 mph 1016.5mb 81f 80f
2:20  -   -   -  16 20 mph 1016.5mb 81f 80f
2:10  -   -   -  16 20 mph 1016.5mb 81f 80f
2:00  -   -   -  16 20 mph 1016.5mb 81f 80f
1:50 5ft 7s 5s 18 20 mph 1016.5mb 81f 80f
1:40  -   -   -  18 22 mph 1016.5mb 81f 80f
1:30  -   -   -  18 20 mph 1016.5mb 81f 80f
1:20  -   -   -  18 22 mph 1016.5mb 81f 80f
1:10  -   -   -  18 25 mph 1016.5mb 81f 80f
1:00  -   -   -  18 22 mph 1016.5mb 81f 80f
12:50 5ft 7s 5s 18 22 mph 1016.9mb 81f 80f
12:40 5ft  -  5s 20 25 mph 1016.9mb 81f 80f
12:30  -   -   -  18 25 mph 1017mb 81f 80f
12:20  -   -   -  18 22 mph 1017mb - 80f
12:10  -   -   -  18 22 mph 1017.1mb 81f 80f
12:00  -   -   -  18 22 mph 1017.4mb 81f 80f
11:50 5ft 7s 5s 18 22 mph 1017.5mb 81f 80f
11:40 5ft  -  5s 18 20 mph 1017.9mb 81f 80f
11:30  -   -   -  18 20 mph 1018mb 81f 80f
11:20  -   -   -  16 20 mph 1018.1mb 81f 80f
11:10  -   -   -  18 20 mph 1018.3mb 81f 80f
11:00  -   -   -  18 22 mph 1018.4mb 81f 80f
10:50 5ft 7s 5s 18 22 mph 1018.4mb 81f 80f
10:40 5ft  -  5s 18 20 mph 1018.5mb 81f 80f
10:30  -   -   -  18 20 mph 1018.9mb 81f 80f
10:20  -   -   -  16 20 mph 1018.9mb 81f 80f
10:10  -   -   -  16 18 mph 1018.9mb 81f 80f
10:00  -   -   -  16 20 mph 1019mb 81f 80f
9:50 4.5ft 8s 5s 18 22 mph 1019mb 81f 80f
9:40  -   -   -  16 20 mph 1019mb 81f 80f
9:30  -   -   -  16 20 mph 1019mb 81f 80f
9:20  -   -   -  16 20 mph 1019mb 81f 80f
9:10  -   -   -  16 20 mph 1018.9mb 81f 80f
9:00  -   -   -  16 20 mph 1018.8mb 81f 80f
8:50 5ft 7s 5s 16 20 mph 1018.8mb 81f 80f
8:40 5ft  -  5s 16 18 mph 1018.6mb 81f 80f
8:30  -   -   -  13 18 mph 1018.6mb 81f 80f
8:20  -   -   -  13 18 mph 1018.5mb 81f 80f
8:10  -   -   -  13 16 mph 1018.5mb 81f 80f
8:00  -   -   -  13 16 mph 1018.5mb 81f 80f
7:10  -   -   -  16 18 mph 1018mb 81f 80f
7:00  -   -   -  16 18 mph 1018mb 81f 80f
6:50 5ft 8s 5s 16 18 mph 1017.9mb 81f 80f
6:40  -   -   -  16 20 mph 1017.6mb 81f 80f
6:30  -   -   -  16 20 mph 1017.5mb - 80f
6:20  -   -   -  16 18 mph 1017.4mb 81f 80f
6:10  -   -   -  16 20 mph 1017.1mb 81f 80f
6:00  -   -   -  16 20 mph 1017mb 81f 80f
5:50 6ft 8s 6s 16 18 mph 1017mb 81f 80f
5:40 6ft  -  6s 13 18 mph 1017mb 81f 80f
5:30  -   -   -  16 18 mph 1016.8mb 81f 80f
5:20  -   -   -  16 18 mph 1016.8mb 81f 80f
5:10  -   -   -  16 18 mph 1016.6mb 81f 80f
5:00  -   -   -  16 18 mph 1016.5mb 81f 80f
4:50 5.5ft 7s 6s 16 20 mph 1016.5mb 81f 80f
4:40 5.5ft  -  6s 16 18 mph 1016.4mb 81f 79f
4:30  -   -   -  13 18 mph 1016.4mb 81f 80f
4:20  -   -   -  13 18 mph 1016.3mb 81f 80f
4:10  -   -   -  13 16 mph 1016.3mb 81f 80f
4:00  -   -   -  16 18 mph 1016.3mb 81f 79f
3:50 6ft 8s 5s 13 18 mph 1016.3mb 81f 80f
3:40 6ft  -  5s 16 20 mph 1016.3mb 81f 80f
3:30  -   -   -  16 20 mph 1016.3mb 81f 79f
3:20  -   -   -  16 20 mph 1016.1mb 81f 79f
3:10  -   -   -  16 18 mph 1016.1mb 81f 80f
3:00  -   -   -  16 20 mph 1016.1mb 81f 80f
2:50 6ft 8s 6s 16 20 mph 1016.1mb 81f 80f
2:40 6ft  -  6s 16 20 mph 1016.3mb 81f 80f
2:30  -   -   -  16 20 mph 1016.4mb 81f 80f
2:20  -   -   -  16 20 mph 1016.4mb 81f 80f
2:10  -   -   -  16 20 mph 1016.4mb 81f 80f
2:00  -   -   -  16 18 mph 1016.5mb 81f 80f
1:50 7ft 8s 6s 16 20 mph 1016.5mb 81f 80f
1:40 7ft  -  6s 16 20 mph 1016.6mb 81f 79f
1:30  -   -   -  9 18 mph 1016.6mb 81f 77f
1:20  -   -   -  4 11 mph 1016.9mb 81f 76f
1:10  -   -   -  11 16 mph 1016.8mb 81f 76f
1:00  -   -   -  9 16 mph 1016.9mb 81f 76f
12:50 6ft 8s 6s 13 20 mph 1016.9mb 81f 76f
12:40 6ft  -  6s 13 22 mph 1017mb 81f 76f
12:30  -   -   -  13 18 mph 1017mb 81f 76f
12:20  -   -   -  7 13 mph 1017mb - 76f
12:10  -   -   -  4 9 mph 1017.1mb 81f 74f
12:00  -   -   -  16 25 mph 1017.4mb 81f 74f
lun. 01/16 11:50 6ft 8s 6s 22 27 mph 1017.3mb 81f 76f
11:40 6ft  -  6s 18 22 mph 1017.3mb 81f 78f
11:30  -   -   -  20 22 mph 1017.3mb 81f 78f
11:20  -   -   -  18 25 mph 1017.3mb 81f 78f
11:10  -   -   -  18 22 mph 1017.3mb 81f 78f
11:00  -   -   -  18 22 mph 1017.3mb 81f 79f
10:50 7ft 8s 6s 18 25 mph 1017.4mb 81f 79f
10:40  -   -   -  18 22 mph 1017.4mb 81f 78f
10:30  -   -   -  20 25 mph 1017.5mb 81f 78f
10:20  -   -   -  20 27 mph 1017.5mb 81f 78f
10:10  -   -   -  20 25 mph 1017.5mb 81f 79f
10:00  -   -   -  13 20 mph 1017.5mb 81f 78f
9:50 6.5ft 8s 6s 18 20 mph 1017.5mb 81f 78f
9:40  -   -   -  18 22 mph 1017.5mb 81f 79f
9:30  -   -   -  16 20 mph 1017.5mb 81f 79f
9:20  -   -   -  13 18 mph 1017.5mb 81f 79f
9:10  -   -   -  16 20 mph 1017.5mb 81f 79f
9:00  -   -   -  13 18 mph 1017.5mb 81f 78f
8:50 6.5ft  -  6s 11 16 mph 1017.5mb 81f 78f
8:40 6.5ft 8s  -   -  mph - - -
8:30  -   -   -  20 27 mph 1017.1mb 81f 77f
8:20  -   -   -  18 27 mph 1017.1mb 81f 78f
8:10  -   -   -  18 27 mph 1017.1mb 81f 78f
8:00  -   -   -  18 22 mph 1017.1mb 81f 80f
7:50 6.5ft 8s 6s 18 20 mph 1017mb 81f 79f
7:40 6.5ft  -  6s 18 22 mph 1017mb 81f 79f
7:30  -   -   -  18 22 mph 1017mb 81f 79f
7:20  -   -   -  18 22 mph 1016.8mb 81f 80f
7:10  -   -   -  16 20 mph 1016.6mb 81f 80f
7:00  -   -   -  18 20 mph 1017.4mb 81f 80f
6:50 6.5ft 8s 6s 16 20 mph 1016.5mb 81f 80f
6:40  -   -   -  18 22 mph 1016.5mb 81f 80f
6:30  -   -   -  18 20 mph 1016.4mb 81f 80f
6:20  -   -   -  18 22 mph 1016.4mb 81f 80f
6:10  -   -   -  18 22 mph 1016.4mb 81f 80f
6:00  -   -   -  18 22 mph 1016.4mb 81f 80f
5:50 7ft 8s 6s 18 20 mph 1016.4mb 81f 80f
5:40  -   -   -  18 22 mph 1016.4mb 81f 80f
5:30  -   -   -  18 25 mph 1016.3mb 81f 80f
5:20  -   -   -  18 22 mph 1016.1mb 81f 80f
5:10  -   -   -  18 22 mph 1016mb 81f 80f
5:00  -   -   -  18 22 mph 1016mb 81f 80f
4:50 6ft 8s 6s 18 22 mph 1016mb 81f 80f
4:40 6ft  -  6s 18 22 mph 1015.9mb 81f 80f
4:30  -   -   -  18 22 mph 1015.9mb 81f 80f
4:20  -   -   -  18 22 mph 1015.9mb 81f 80f
4:10  -   -   -  18 20 mph 1015.8mb 81f 80f
4:00  -   -   -  18 20 mph 1015.6mb 81f 80f
3:50 6ft 8s 5s 18 20 mph 1015.6mb 81f 80f
3:40  -   -   -  18 20 mph 1015.6mb 81f 80f
3:30  -   -   -  16 20 mph 1015.6mb 81f 80f
3:20  -   -   -  16 22 mph 1015.6mb 81f 80f
3:10  -   -   -  16 20 mph 1015.5mb 81f 80f
3:00  -   -   -  18 20 mph 1015.5mb 81f 80f
2:50 6.5ft 7s 6s 18 20 mph 1015.5mb 81f 80f
2:40  -   -   -  16 22 mph 1015.5mb 81f 80f
2:30  -   -   -  16 20 mph 1015.5mb 81f 80f
2:20  -   -   -  18 20 mph 1015.5mb 81f 80f
2:10  -   -   -  18 22 mph 1015.5mb 81f 80f
2:00  -   -   -  18 22 mph 1015.5mb 81f 80f
1:50 5.5ft 8s 5s 18 22 mph 1015.6mb 81f 80f
1:40 5.5ft  -  5s 18 20 mph 1015.6mb 81f 80f
1:30  -   -   -  18 22 mph 1015.8mb 81f 80f
1:20  -   -   -  18 22 mph 1016mb 81f 80f
1:10  -   -   -  18 22 mph 1016.3mb 81f 80f
1:00  -   -   -  18 22 mph 1016.4mb 81f 80f
12:50 5.5ft 8s 5s 18 22 mph 1016.5mb 81f 80f
12:40  -   -   -  16 20 mph 1016.5mb 81f 80f
12:30  -   -   -  16 20 mph 1016.8mb 81f 80f
12:20  -   -   -  16 20 mph 1017mb 81f 80f
12:10  -   -   -  18 20 mph 1017mb 81f 80f
12:00  -   -   -  18 20 mph 1017mb 81f 80f
11:50 5.5ft 8s 5s 16 20 mph 1017.1mb 81f 80f
11:40  -   -   -  13 18 mph 1017.4mb 81f 80f
11:30  -   -   -  16 20 mph 1017.5mb 81f 80f
11:20  -   -   -  16 20 mph 1017.5mb 81f 80f
11:10  -   -   -  16 20 mph 1017.8mb 81f 80f
11:00  -   -   -  18 20 mph 1017.9mb 81f 80f
10:50 6ft 6s 5s 18 22 mph 1018mb 81f 80f
10:40  -   -   -  18 22 mph 1018.3mb 81f 80f
10:30  -   -   -  18 22 mph 1018.3mb 81f 80f
10:20  -   -   -  18 20 mph 1018.3mb 81f 80f
10:10  -   -   -  18 22 mph 1018.4mb 81f 80f
10:00  -   -   -  18 22 mph 1018.3mb 81f 80f
9:50 6ft 8s 5s 20 25 mph 1018.1mb 81f 80f
9:40 6ft  -  5s 20 25 mph 1018mb 81f 80f
9:30  -   -   -  20 25 mph 1018mb 81f 80f
9:20  -   -   -  20 25 mph 1018mb 81f 80f
9:10  -   -   -  20 25 mph 1018mb 81f 80f
9:00  -   -   -  18 22 mph 1017.9mb 81f 80f
8:50 6ft 8s 5s 20 22 mph 1017.9mb 81f 80f
8:40 6ft  -  5s 20 25 mph 1017.8mb 81f 80f
8:30  -   -   -  20 25 mph 1017.6mb 81f 80f
8:20  -   -   -  20 25 mph 1017.5mb 81f 80f
8:10  -   -   -  20 25 mph 1017.5mb 81f 80f
8:00  -   -   -  20 25 mph 1017.4mb 81f 80f
7:50 6ft 8s 5s 20 25 mph 1017.3mb 81f 79f
7:40  -   -   -  20 22 mph 1017.1mb 81f 79f
7:30  -   -   -  18 22 mph 1017mb 81f 79f
7:20  -   -   -  20 25 mph 1017mb 81f 79f
7:10  -   -   -  20 22 mph 1017mb 81f 80f
7:00  -   -   -  18 22 mph 1017mb 81f 80f
6:50 6ft  -  6s 18 22 mph 1016.9mb 81f 80f
6:40 6ft 8s 6s  -  mph - - -
6:30  -   -   -  18 22 mph 1016.8mb 81f 80f
6:20  -   -   -  18 22 mph 1016.6mb 81f 80f
6:10  -   -   -  18 22 mph 1016.5mb 81f 80f
6:00  -   -   -  18 20 mph 1016.5mb 81f 80f
5:50 6ft 8s 6s 18 20 mph 1016.4mb 81f 80f
5:40  -   -   -  18 22 mph 1016.4mb 81f 80f
5:30  -   -   -  18 22 mph 1016.1mb - 80f
5:20  -   -   -  18 22 mph 1016mb 81f 80f
5:10  -   -   -  18 22 mph 1016mb 81f 80f
5:00  -   -   -  18 22 mph 1016mb 81f 80f
4:50 6ft 8s 6s 18 22 mph 1015.9mb 81f 80f
4:40 6ft  -  6s 18 22 mph 1015.9mb 81f 79f
4:30  -   -   -  16 20 mph 1015.9mb 81f 79f
4:20  -   -   -  16 22 mph 1015.9mb 81f 80f
4:10  -   -   -  18 22 mph 1015.9mb 81f 79f
4:00  -   -   -  18 22 mph 1015.9mb 81f 79f
3:50 7ft 8s 6s 18 25 mph 1015.9mb 81f 79f
3:40 7ft  -  6s 18 22 mph 1015.9mb 81f 79f
3:30  -   -   -  18 22 mph 1015.9mb - 79f
3:20  -   -   -  20 25 mph 1015.9mb 81f 79f
3:10  -   -   -  20 25 mph 1015.9mb 81f 79f
3:00  -   -   -  20 25 mph 1015.9mb 81f 79f
2:50 8ft 8s 6s 20 22 mph 1016mb 81f 79f
2:40 8ft  -  6s 18 22 mph 1016mb 81f 79f
2:30  -   -   -  20 25 mph 1016mb 81f 79f
2:20  -   -   -  18 25 mph 1016mb 81f 79f
2:10  -   -   -  20 27 mph 1016mb 81f 79f
2:00  -   -   -  20 27 mph 1016mb 81f 79f
1:50 7ft 8s 6s 20 27 mph 1016mb 81f 79f
1:40 7ft  -  6s 20 25 mph 1016.1mb 81f 79f
1:30  -   -   -  20 25 mph 1016.4mb 81f 79f
1:20  -   -   -  20 25 mph 1016.4mb 81f 79f
1:10  -   -   -  20 25 mph 1016.5mb 81f 79f
1:00  -   -   -  20 25 mph 1016.6mb 81f 79f
12:50 7.5ft 8s 6s 20 25 mph 1016.6mb 81f 79f
12:40  -   -   -  20 27 mph 1016.8mb 81f 79f
12:30  -   -   -  20 25 mph 1016.9mb 81f 79f
12:20  -   -   -  20 25 mph 1017mb 81f 80f
12:10  -   -   -  20 25 mph 1016.9mb 81f 79f
12:00  -   -   -  22 27 mph 1016.9mb 81f 79f
dim. 01/15 11:50 7.5ft 8s 6s 20 27 mph 1017mb 81f 79f
11:40 7.5ft  -  6s 20 27 mph 1017mb 81f 80f
11:30  -   -   -  20 25 mph 1017mb 81f 80f
11:20  -   -   -  22 27 mph 1017.1mb 81f 80f
11:10  -   -   -  20 27 mph 1017.1mb 81f 80f
11:00  -   -   -  22 29 mph 1017.4mb 81f 80f
10:50 8ft 7s 6s 22 27 mph 1017.4mb 81f 80f
10:40  -   -   -  22 29 mph 1017.3mb 81f 80f
10:30  -   -   -  22 29 mph 1017.4mb 81f 80f
10:20  -   -   -  22 27 mph 1017.4mb 81f 80f
10:10  -   -   -  22 27 mph 1017.4mb 81f 80f
10:00  -   -   -  22 29 mph 1017.4mb 81f 80f
9:50 7.5ft 8s 6s 22 29 mph 1017.3mb 81f 80f
9:40 7.5ft  -  6s 22 27 mph 1017.5mb 81f 80f
9:30  -   -   -  22 27 mph 1017.5mb 81f 80f
9:20  -   -   -  22 27 mph 1017.5mb 81f 80f
9:10  -   -   -  20 25 mph 1017.5mb 81f 80f
9:00  -   -   -  22 27 mph 1017.5mb 81f 80f
8:50 8.5ft 8s 6s 20 25 mph 1017.5mb 81f 80f
8:40 8.5ft  -  6s 22 27 mph 1017.4mb 81f 80f
8:30  -   -   -  20 25 mph 1017.3mb 81f 80f
8:20  -   -   -  20 27 mph 1017.1mb 81f 80f
8:10  -   -   -  20 27 mph 1017.1mb 81f 80f
8:00  -   -   -  20 27 mph 1017.1mb 81f 80f
7:50 7.5ft 8s 6s 20 25 mph 1017mb 81f 80f
7:40  -   -   -  20 25 mph 1017mb 81f 80f
7:30  -   -   -  20 25 mph 1017mb 81f 80f
7:20  -   -   -  22 27 mph 1016.9mb 81f 80f
7:10  -   -   -  20 27 mph 1016.6mb 81f 80f
7:00  -   -   -  20 27 mph 1016.5mb 81f 80f
6:50 8ft 9s 6s 20 27 mph 1016.5mb 81f 80f
6:40 8ft  -  6s 20 27 mph 1016.5mb 81f 80f
6:30  -   -   -  20 25 mph 1016.5mb 81f 80f
6:20  -   -   -  20 25 mph 1016.4mb 81f 80f
6:10  -   -   -  20 25 mph 1016.4mb 81f 80f
6:00  -   -   -  20 25 mph 1016.4mb 81f 80f
5:50 8ft 8s 6s 20 25 mph 1016.4mb 81f 80f
5:40  -   -   -  20 22 mph 1016.4mb 81f 80f
5:30  -   -   -  18 25 mph 1016.4mb 81f 80f
5:20  -   -   -  20 27 mph 1016.1mb 81f 80f
5:10  -   -   -  18 25 mph 1016.1mb 81f 80f
5:00  -   -   -  18 25 mph 1016mb 81f 80f
4:50 8ft 9s 6s 18 25 mph 1016mb 81f 80f
4:40  -   -   -  20 25 mph 1015.9mb 81f 80f
4:30  -   -   -  20 27 mph 1015.9mb 81f 80f
4:20  -   -   -  20 22 mph 1015.6mb 81f 80f
4:10  -   -   -  20 25 mph 1015.5mb 81f 80f
4:00  -   -   -  20 27 mph 1015.5mb 81f 80f
3:50 8.5ft 8s 6s 20 27 mph 1015.5mb 81f 80f
3:40 8.5ft  -  6s 20 22 mph 1015.6mb 81f 80f
3:30  -   -   -  20 25 mph 1015.6mb 81f 80f
3:20  -   -   -  20 25 mph 1015.6mb - -
3:10  -   -   -  20 25 mph 1015.8mb 81f 80f
3:00  -   -   -  18 25 mph 1015.8mb 81f 80f
2:50 8.5ft 8s 6s 20 25 mph 1015.6mb 81f 80f
2:40  -   -   -  20 25 mph 1015.8mb 81f 80f
2:30  -   -   -  20 25 mph 1015.9mb 81f 80f
2:20  -   -   -  20 25 mph 1015.9mb 81f 80f
2:10  -   -   -  20 25 mph 1016mb 81f 80f
2:00  -   -   -  20 25 mph 1016.1mb 81f 80f
1:50 9ft 8s 6s 20 25 mph 1016.1mb 81f 80f
1:40  -   -   -  20 25 mph 1016.1mb 81f 80f
1:30  -   -   -  20 27 mph 1016.3mb 81f 80f
1:20  -   -   -  22 25 mph 1016.4mb 81f 80f
1:10  -   -   -  22 27 mph 1016.5mb 81f 80f
1:00  -   -   -  22 27 mph 1016.5mb 81f 80f
12:50 7.5ft 9s 6s 22 27 mph 1016.6mb 81f 80f
12:40  -   -   -  22 27 mph 1016.8mb 81f 80f
12:30  -   -   -  22 27 mph 1017mb 81f 80f
12:20  -   -   -  22 27 mph 1017mb 81f 80f
12:10  -   -   -  22 27 mph 1017.1mb 81f 80f
12:00  -   -   -  22 29 mph 1017.4mb 81f 80f
11:50 9ft 8s 6s 22 27 mph 1017.5mb 81f 80f
11:40 9ft  -  6s 22 27 mph 1017.8mb 81f 80f
11:30  -   -   -  22 29 mph 1018mb 81f 80f
11:20  -   -   -  22 29 mph 1018.3mb 81f 80f
11:10  -   -   -  22 27 mph 1018.4mb 81f 80f
11:00  -   -   -  22 27 mph 1018.5mb 81f 80f
10:50 9.5ft 8s 6s 22 27 mph 1018.8mb 81f 80f
10:40 9.5ft  -  6s 22 29 mph 1018.9mb 81f 80f
10:30  -   -   -  22 29 mph 1019mb 81f 80f
10:20  -   -   -  22 29 mph 1019mb 81f 80f
10:10  -   -   -  22 29 mph 1019mb 81f 80f
10:00  -   -   -  25 29 mph 1019mb 81f 80f
9:50 8.5ft 8s 6s 25 29 mph 1019mb 81f 80f
9:40 8.5ft  -  6s 22 29 mph 1019.1mb 81f 80f
9:30  -   -   -  22 29 mph 1019.1mb 81f 80f
9:20  -   -   -  25 29 mph 1019.1mb 81f 80f
9:10  -   -   -  25 29 mph 1019.1mb 81f 80f
9:00  -   -   -  25 31 mph 1019mb 81f 80f
8:50 9ft 8s 6s 25 31 mph 1019mb 81f 80f
8:40  -   -   -  25 31 mph 1019.1mb 81f 80f
8:30  -   -   -  25 29 mph 1019.1mb 81f 80f
8:20  -   -   -  25 29 mph 1019mb 81f 80f
8:10  -   -   -  25 31 mph 1019mb 81f 80f
8:00  -   -   -  22 31 mph 1018.8mb 81f 80f
7:50 8ft 8s  -  25 31 mph 1018.8mb 81f 80f
7:40  -   -   -  25 29 mph 1018.5mb 81f 80f
7:30  -   -   -  25 29 mph 1018.5mb 81f 80f
7:20  -   -   -  25 29 mph 1019.2mb 81f 80f
7:10  -   -   -  22 29 mph 1018.4mb 81f 79f
7:00  -   -   -  18 22 mph 1018.4mb 81f 78f
6:50 7.5ft 9s 6s 18 25 mph 1018.4mb 81f 77f
6:40  -   -   -  16 20 mph 1018.3mb 81f 76f
6:30  -   -   -  16 27 mph 1018.4mb 81f 76f
6:20  -   -   -  22 27 mph 1018.1mb 81f 77f
6:10  -   -   -  22 29 mph 1018mb 81f 77f
6:00  -   -   -  25 31 mph 1018mb 81f 77f
5:50 8ft 8s 6s 22 29 mph 1018mb 81f 77f
5:40  -   -   -  22 27 mph 1018mb 81f 77f
5:30  -   -   -  22 29 mph 1018mb 81f 77f
5:20  -   -   -  25 29 mph 1018mb 81f 78f
5:10  -   -   -  25 31 mph 1017.9mb 81f 78f
5:00  -   -   -  22 31 mph 1017.6mb 81f 78f
4:50 7ft 9s 6s 20 25 mph 1017.8mb 81f 78f
4:40  -   -   -  22 27 mph 1017.9mb 81f 78f
4:30  -   -   -  22 29 mph 1017.9mb 81f 78f
4:20  -   -   -  22 27 mph 1018mb 81f 78f
4:10  -   -   -  22 27 mph 1017.9mb 81f 78f
4:00  -   -   -  20 25 mph 1017.8mb 81f 78f
3:50 7.5ft 8s 6s 20 27 mph 1017.8mb 81f 78f
3:40 7.5ft  -  6s 22 29 mph 1017.9mb 81f 78f
3:30  -   -   -  22 27 mph 1017.6mb 81f 78f
3:20  -   -   -  22 25 mph 1017.6mb 81f 78f
3:10  -   -   -  22 27 mph 1017.8mb 81f 78f
3:00  -   -   -  22 27 mph 1017.8mb 81f 78f
2:50 7.5ft 8s 6s 22 27 mph 1017.8mb 81f 77f
2:40  -   -   -  27 34 mph 1017.8mb 81f 78f
2:30  -   -   -  20 31 mph 1017.5mb 81f 79f
2:20  -   -   -  18 25 mph 1017.8mb 81f 80f
2:10  -   -   -  18 25 mph 1017.9mb 81f 80f
2:00  -   -   -  18 22 mph 1018mb 81f 80f
1:50 7.5ft 7s 6s 18 25 mph 1018.3mb 81f 80f
1:40 7.5ft  -  6s 18 25 mph 1018.4mb 81f 80f
1:30  -   -   -  18 22 mph 1018.5mb 81f 80f
1:20  -   -   -  18 22 mph 1018.5mb 81f 80f
1:10  -   -   -  16 22 mph 1018.5mb - 79f
1:00  -   -   -  16 18 mph 1018.9mb 81f 79f
12:50 7.5ft 8s 6s 16 20 mph 1018.9mb 81f 79f
12:40  -   -   -  18 22 mph 1019mb 81f 79f
12:30  -   -   -  18 25 mph 1019mb 81f 79f
12:20  -   -   -  20 25 mph 1019.1mb 81f 79f
12:10  -   -   -  20 25 mph 1019.3mb 81f 79f
12:00  -   -   -  20 27 mph 1019.4mb 81f 79f
sam. 01/14 11:50 8ft 8s 6s 22 27 mph 1019.5mb 81f 79f
11:40 8ft  -  6s 22 27 mph 1019.5mb 81f 79f
11:30  -   -   -  20 25 mph 1019.5mb 81f 79f
11:20  -   -   -  20 25 mph 1019.6mb 81f 79f
11:10  -   -   -  20 25 mph 1019.8mb 81f 79f
11:00  -   -   -  20 27 mph 1019.6mb 81f 79f
10:50 8.5ft 8s 6s 20 29 mph 1019.9mb 81f 79f
10:40 8.5ft  -  6s 22 27 mph 1020mb 81f 79f
10:30  -   -   -  22 29 mph 1020mb 81f 79f
10:20  -   -   -  22 29 mph 1020mb 81f 80f
10:10  -   -   -  22 29 mph 1020mb 81f 80f
10:00  -   -   -  22 29 mph 1020mb 81f 80f
9:50 9ft 8s 6s 25 31 mph 1020mb 81f 80f
9:40 9ft  -  6s 22 27 mph 1020mb 81f 80f
9:30  -   -   -  22 29 mph 1020mb 81f 80f
9:20  -   -   -  22 29 mph 1020mb 81f 80f
9:10  -   -   -  22 29 mph 1020mb 81f 79f
9:00  -   -   -  22 29 mph 1020mb 81f 79f
8:50 8ft 8s 6s 22 27 mph 1020mb 81f 79f
8:40 8ft  -  6s 22 27 mph 1019.9mb 81f 79f
8:30  -   -   -  22 29 mph 1019.8mb 81f 79f
8:20  -   -   -  25 31 mph 1019.6mb 81f 79f
8:10  -   -   -  22 29 mph 1019.6mb 81f 79f
8:00  -   -   -  22 27 mph 1019.6mb 81f 79f
7:50 9ft 9s 6s 22 27 mph 1019.5mb 81f 79f
7:40  -   -   -  22 29 mph 1019.5mb 81f 79f
7:30  -   -   -  22 29 mph 1019.5mb 81f 79f
7:20  -   -   -  22 27 mph 1019.5mb 81f 79f
7:10  -   -   -  22 31 mph 1019.5mb 81f 79f
7:00  -   -   -  22 27 mph 1019.4mb 81f 79f
6:50 8.5ft 8s 6s 22 27 mph 1019.3mb 81f 79f
6:40 8.5ft  -  6s 20 29 mph 1019.3mb 81f 79f
6:30  -   -   -  22 27 mph 1019.3mb 81f 79f
6:20  -   -   -  20 27 mph 1019.1mb 81f 79f
6:10  -   -   -  22 27 mph 1019mb 81f 79f
6:00  -   -   -  22 27 mph 1018.9mb 81f 79f
5:50 9ft 8s 6s 20 27 mph 1018.8mb 81f 79f
5:40  -   -   -  22 27 mph 1018.5mb 81f 79f
5:30  -   -   -  22 27 mph 1018.5mb 81f 79f
5:20  -   -   -  22 27 mph 1018.5mb 81f 79f
5:10  -   -   -  22 29 mph 1018.5mb 81f 79f
5:00  -   -   -  25 29 mph 1018.5mb 81f 79f
4:50 9ft 8s 6s 22 29 mph 1018.4mb 81f 79f
4:40 9ft  -  6s 22 29 mph 1018.4mb 81f 79f
4:30  -   -   -  22 29 mph 1018.4mb 81f 79f
4:20  -   -   -  22 29 mph 1018.4mb 81f 79f
4:10  -   -   -  22 29 mph 1018.3mb 81f 79f
4:00  -   -   -  22 27 mph 1018.3mb 81f 79f
3:50 10ft 9s 7s 20 27 mph 1018.3mb 81f 79f
3:40 10ft  -  7s 22 29 mph 1018.3mb 81f 79f
3:30  -   -   -  22 29 mph 1018.3mb 81f 79f
3:20  -   -   -  22 27 mph 1018.3mb 81f 79f
3:10  -   -   -  22 29 mph 1018.4mb 81f 79f
3:00  -   -   -  22 29 mph 1018.3mb 81f 79f
2:50 9ft 8s 6s 22 27 mph 1018.3mb 81f 79f
2:40  -   -   -  22 27 mph 1018.4mb 81f 79f
2:30  -   -   -  22 27 mph 1018.5mb 81f 79f
2:20  -   -   -  22 27 mph 1018.5mb 81f 79f
2:10  -   -   -  20 25 mph 1018.5mb 81f 79f
2:00  -   -   -  20 27 mph 1018.6mb 81f 79f
1:50 10ft 9s 6s 22 27 mph 1018.8mb 81f 79f
1:40 10ft  -  6s 22 27 mph 1018.9mb 81f 79f
1:30  -   -   -  25 29 mph 1019mb 81f 79f
1:20  -   -   -  22 27 mph 1019.1mb 81f 79f
1:10  -   -   -  22 29 mph 1019.3mb 81f 78f
1:00  -   -   -  25 31 mph 1019.4mb 81f 78f
12:50 10ft 8s 6s 25 31 mph 1019.5mb 81f 79f
12:40 10ft  -  6s 22 29 mph 1019.5mb 81f 79f
12:30  -   -   -  25 29 mph 1019.6mb 81f 79f
12:20  -   -   -  22 31 mph 1019.8mb 81f 79f
12:10  -   -   -  22 29 mph 1019.9mb 81f 79f
12:00  -   -   -  25 29 mph 1020mb 81f 80f
11:50 11ft 8s 7s 22 29 mph 1020.3mb 81f 78f
11:40 11ft  -  7s 22 29 mph 1020.5mb 81f 78f
11:30  -   -   -  22 29 mph 1020.8mb 81f 78f
11:20  -   -   -  25 31 mph 1020.8mb 81f 79f
11:10  -   -   -  25 31 mph 1020.9mb 81f 79f
11:00  -   -   -  25 31 mph 1020.9mb 81f 79f
10:50 10ft 8s 6s 25 31 mph 1021mb 81f 79f
10:40  -   -   -  25 29 mph 1021.1mb 81f 80f
10:30  -   -   -  25 29 mph 1021.3mb 81f 80f
10:20  -   -   -  25 29 mph 1021.3mb 81f 80f
10:10  -   -   -  25 31 mph 1021.3mb 81f 80f
10:00  -   -   -  25 31 mph 1021.3mb 81f 80f
9:50 10ft 8s 6s 25 31 mph 1021.3mb 81f 80f
9:40  -   -   -  22 29 mph 1021.4mb 81f 80f
9:30  -   -   -  22 31 mph 1021.5mb 81f 80f
9:20  -   -   -  25 31 mph 1021.5mb 81f 80f
9:10  -   -   -  25 31 mph 1021.5mb 81f 80f
9:00  -   -   -  25 31 mph 1021.5mb 81f 80f
8:50 9.5ft 8s 6s 25 31 mph 1021.5mb 81f 80f
8:40  -   -   -  25 31 mph 1021.4mb 81f 80f
8:30  -   -   -  25 31 mph 1021.1mb 81f 80f
8:20  -   -   -  25 34 mph 1021.1mb 81f 80f
8:10  -   -   -  25 31 mph 1021mb 81f 80f
8:00  -   -   -  25 31 mph 1020.9mb 81f 80f
7:50 9ft 8s 6s 27 34 mph 1020.8mb 81f 79f
7:40  -   -   -  27 34 mph 1020.8mb 81f 79f
7:30  -   -   -  27 34 mph 1020.5mb 81f 79f
7:20  -   -   -  27 34 mph 1020.5mb 81f 79f
7:10  -   -   -  25 31 mph 1020.5mb 81f 79f
7:00  -   -   -  27 31 mph 1020.3mb 81f 79f
6:50 8ft 8s 6s 25 31 mph 1020.1mb 81f 79f
6:40 8ft  -  6s 18 31 mph 1020mb 81f 76f
6:30  -   -   -  13 18 mph 1020mb 81f 76f
6:20  -   -   -  16 22 mph 1020mb 81f 76f
6:10  -   -   -  18 22 mph 1020mb 81f 76f
6:00  -   -   -  18 25 mph 1020mb 81f 74f
5:50 8ft 8s 6s 18 29 mph 1020mb 81f 76f
5:40  -   -   -  18 22 mph 1020mb 81f 76f
5:30  -   -   -  18 22 mph 1020mb 81f 76f
5:20  -   -   -  18 22 mph 1020mb 81f 76f
5:10  -   -   -  20 27 mph 1019.9mb 81f 76f
5:00  -   -   -  22 29 mph 1019.8mb 81f 76f
4:50 8ft 8s 6s 22 29 mph 1019.9mb 81f 76f
4:40 8ft  -  6s 22 29 mph 1019.8mb 81f 76f
4:30  -   -   -  20 27 mph 1019.9mb 81f 76f
4:20  -   -   -  22 27 mph 1019.9mb 81f 75f
4:10  -   -   -  25 34 mph 1019.9mb 81f 76f
4:00  -   -   -  27 36 mph 1019.6mb 81f 78f
3:50 8.5ft 8s 6s 25 29 mph 1019.6mb 81f 78f
3:40 8.5ft  -  6s 22 29 mph 1019.6mb 81f 78f
3:30  -   -   -  22 27 mph 1019.6mb 81f 78f
3:20  -   -   -  22 29 mph 1019.6mb 81f 78f
3:10  -   -   -  22 29 mph 1019.6mb 81f 78f
3:00  -   -   -  22 29 mph 1019.8mb 81f 78f
2:50 9ft 8s 6s 22 27 mph 1019.8mb 81f 78f
2:40 9ft  -  6s 22 27 mph 1019.9mb 81f 78f
2:30  -   -   -  22 29 mph 1020mb 81f 78f
2:20  -   -   -  22 27 mph 1020mb 81f 78f
2:10  -   -   -  22 29 mph 1020mb 81f 79f
2:00  -   -   -  22 27 mph 1020.1mb 81f 79f
1:50 9.5ft 9s 7s 20 25 mph 1020.3mb 81f 79f
1:40  -   -   -  20 27 mph 1020.3mb 81f 80f
1:30  -   -   -  20 27 mph 1020.4mb 81f 80f
1:20  -   -   -  20 29 mph 1020.5mb 81f 80f
1:10  -   -   -  20 27 mph 1020.5mb 81f 80f
1:00  -   -   -  20 27 mph 1020.5mb 81f 80f
12:50 9ft 8s 6s 20 25 mph 1020.8mb 81f 80f
12:40  -   -   -  20 27 mph 1020.9mb 81f 80f
12:30  -   -   -  20 27 mph 1020.8mb 81f 80f
12:20  -   -   -  22 27 mph 1020.8mb 81f 80f
12:10  -   -   -  22 29 mph 1020.9mb 81f 80f
12:00  -   -   -  22 31 mph 1021mb 81f 80f
ven. 01/13 11:50 10ft 8s 7s 22 31 mph 1021mb 81f 80f
11:40 10ft  -  7s 25 31 mph 1021mb 81f 80f
11:30  -   -   -  22 29 mph 1021mb 81f 80f
11:20  -   -   -  22 29 mph 1021.3mb 81f 80f
11:10  -   -   -  22 29 mph 1021.4mb 81f 80f
11:00  -   -   -  22 29 mph 1021.5mb 81f 80f
10:50 10ft 8s 7s 22 29 mph 1021.5mb 81f 80f
10:40  -   -   -  22 29 mph 1021.6mb 81f 80f
10:30  -   -   -  25 29 mph 1021.8mb 81f 79f
10:20  -   -   -  22 31 mph 1021.9mb 81f 80f
10:10  -   -   -  25 29 mph 1021.9mb 81f 80f
10:00  -   -   -  25 29 mph 1021.9mb 81f 80f
9:50 9ft 8s 6s 22 29 mph 1021.8mb 81f 80f
9:40 9ft  -  6s 25 29 mph 1021.9mb 81f 80f
9:30  -   -   -  25 31 mph 1021.9mb 81f 80f